UNQ421 SKBO-GOBD

Flight info

Callsign UNQ421
Flight time 7h 41m
Altitude 33000
Route MAVDA UW20 AUC DCT MIQ UN669 OTUSU/N0458F350 UN669 ELJEZ/M078F350 DCT 2150N DCT 2340N DCT 22N036W DCT ERNEK/N0460F350 DCT EVKAS/N0452F370 DCT BVT DCT MOGSA DCT PIVSA PIVSA1D
Aircraft A21N/M-SDE2E3FGHIRWXY/LB1

Departure

Time 2026-04-25 14:16
Airport El Dorado International Airport (SKBO)

Arrival

Time 2026-04-25 21:57
Airport Blaise Diagne International Airport (GOBD)
Time Latitude Longitude Altitude Speed Heading
2026-04-25 12:43 4.69971 -74.14300 8378 ft 0 kts 37°
2026-04-25 13:49 4.69963 -74.14306 8376 ft 4 kts 34°
2026-04-25 13:49 4.69939 -74.14320 8376 ft 4 kts 20°
2026-04-25 13:50 4.69914 -74.14325 8378 ft 4 kts 350°
2026-04-25 13:50 4.69897 -74.14316 8378 ft 2 kts 307°
2026-04-25 13:55 4.69901 -74.14321 8378 ft 2 kts 307°
2026-04-25 13:55 4.69916 -74.14341 8376 ft 5 kts 307°
2026-04-25 13:55 4.69936 -74.14369 8378 ft 5 kts 306°
2026-04-25 13:55 4.69945 -74.14381 8378 ft 1 kts 306°
2026-04-25 13:56 4.69956 -74.14395 8378 ft 4 kts 307°
2026-04-25 13:56 4.69980 -74.14428 8377 ft 7 kts 307°
2026-04-25 13:56 4.70018 -74.14478 8378 ft 10 kts 307°
2026-04-25 13:56 4.70062 -74.14538 8378 ft 11 kts 305°
2026-04-25 13:57 4.70103 -74.14608 8376 ft 12 kts 297°
2026-04-25 13:57 4.70139 -74.14651 8378 ft 13 kts 312°
2026-04-25 13:57 4.70114 -74.14750 8376 ft 14 kts 219°
2026-04-25 13:57 4.70034 -74.14810 8378 ft 15 kts 217°
2026-04-25 13:58 4.69952 -74.14873 8378 ft 15 kts 217°
2026-04-25 13:58 4.69925 -74.14893 8374 ft 4 kts 217°
2026-04-25 13:58 4.69901 -74.14911 8379 ft 5 kts 217°
2026-04-25 13:58 4.69873 -74.14935 8376 ft 6 kts 233°
2026-04-25 13:59 4.69865 -74.14977 8379 ft 7 kts 281°
2026-04-25 13:59 4.69891 -74.15022 8377 ft 8 kts 306°
2026-04-25 13:59 4.69926 -74.15071 8376 ft 9 kts 306°
2026-04-25 13:59 4.69968 -74.15125 8379 ft 11 kts 309°
2026-04-25 14:00 4.70001 -74.15168 8377 ft 12 kts 307°
2026-04-25 14:00 4.70074 -74.15266 8379 ft 14 kts 308°
2026-04-25 14:00 4.70135 -74.15344 8378 ft 15 kts 308°
2026-04-25 14:00 4.70145 -74.15357 8378 ft 0 kts 308°
2026-04-25 14:01 4.70147 -74.15359 8378 ft 2 kts 308°
2026-04-25 14:01 4.70168 -74.15387 8378 ft 7 kts 308°
2026-04-25 14:02 4.70200 -74.15429 8377 ft 8 kts 306°
2026-04-25 14:02 4.70235 -74.15477 8378 ft 9 kts 306°
2026-04-25 14:02 4.70275 -74.15531 8378 ft 10 kts 306°
2026-04-25 14:02 4.70303 -74.15570 8378 ft 11 kts 306°
2026-04-25 14:03 4.70368 -74.15654 8377 ft 12 kts 308°
2026-04-25 14:03 4.70421 -74.15723 8376 ft 13 kts 307°
2026-04-25 14:03 4.70478 -74.15798 8378 ft 14 kts 307°
2026-04-25 14:03 4.70537 -74.15876 8378 ft 15 kts 307°
2026-04-25 14:04 4.70601 -74.15960 8378 ft 15 kts 307°
2026-04-25 14:04 4.70667 -74.16047 8379 ft 16 kts 307°
2026-04-25 14:04 4.70735 -74.16137 8379 ft 17 kts 307°
2026-04-25 14:04 4.70805 -74.16229 8375 ft 17 kts 307°
2026-04-25 14:05 4.70879 -74.16327 8379 ft 18 kts 307°
2026-04-25 14:05 4.70956 -74.16428 8378 ft 18 kts 307°
2026-04-25 14:05 4.71024 -74.16518 8379 ft 14 kts 307°
2026-04-25 14:05 4.71085 -74.16598 8379 ft 15 kts 307°
2026-04-25 14:06 4.71150 -74.16684 8378 ft 16 kts 307°
2026-04-25 14:06 4.71197 -74.16746 8378 ft 0 kts 307°
2026-04-25 14:06 4.71196 -74.16746 8376 ft 0 kts 307°
2026-04-25 14:06 4.71196 -74.16745 8376 ft 0 kts 307°
2026-04-25 14:07 4.71201 -74.16755 8377 ft 4 kts 293°
2026-04-25 14:07 4.71191 -74.16797 8377 ft 9 kts 232°
2026-04-25 14:08 4.71151 -74.16833 8378 ft 0 kts 215°
2026-04-25 14:11 4.71149 -74.16834 8378 ft 0 kts 215°
2026-04-25 14:13 4.71132 -74.16846 8377 ft 8 kts 215°
2026-04-25 14:14 4.71085 -74.16880 8378 ft 9 kts 215°
2026-04-25 14:14 4.71027 -74.16876 8377 ft 10 kts 137°
2026-04-25 14:14 4.71017 -74.16865 8378 ft 0 kts 128°
2026-04-25 14:15 4.70866 -74.16668 8378 ft 77 kts 127°
2026-04-25 14:15 4.70395 -74.16038 8376 ft 147 kts 130°
2026-04-25 14:16 4.69641 -74.15051 8409 ft 204 kts 127°
2026-04-25 14:16 4.68773 -74.13912 9332 ft 206 kts 126°
2026-04-25 14:16 4.67739 -74.12896 9874 ft 216 kts 154°
2026-04-25 14:16 4.66242 -74.12675 10093 ft 227 kts 191°
2026-04-25 14:17 4.64801 -74.13371 10321 ft 239 kts 223°
2026-04-25 14:17 4.63877 -74.14792 10563 ft 250 kts 248°
2026-04-25 14:17 4.63230 -74.16443 10937 ft 256 kts 249°
2026-04-25 14:17 4.62577 -74.18124 11332 ft 263 kts 249°
2026-04-25 14:18 4.61877 -74.19872 11574 ft 278 kts 248°
2026-04-25 14:18 4.61295 -74.21755 11913 ft 289 kts 258°
2026-04-25 14:18 4.60909 -74.23778 12209 ft 301 kts 260°
2026-04-25 14:18 4.60522 -74.25857 12695 ft 305 kts 257°
2026-04-25 14:19 4.59746 -74.27831 13234 ft 307 kts 236°
2026-04-25 14:19 4.58364 -74.29475 13787 ft 310 kts 225°
2026-04-25 14:19 4.56840 -74.31008 14320 ft 312 kts 225°
2026-04-25 14:19 4.55300 -74.32551 14801 ft 314 kts 225°
2026-04-25 14:20 4.53751 -74.34114 15291 ft 317 kts 225°
2026-04-25 14:20 4.53250 -74.34623 15453 ft 317 kts 226°
2026-04-25 14:20 4.50147 -74.36745 15836 ft 336 kts 200°
2026-04-25 14:20 4.47966 -74.37695 16011 ft 349 kts 209°
2026-04-25 14:21 4.45851 -74.38926 16176 ft 362 kts 212°
2026-04-25 14:21 4.43663 -74.40258 16337 ft 375 kts 212°
2026-04-25 14:21 4.41378 -74.41611 16506 ft 388 kts 208°
2026-04-25 14:21 4.38838 -74.42625 16684 ft 400 kts 196°
2026-04-25 14:22 4.36056 -74.43106 16842 ft 412 kts 182°
2026-04-25 14:22 4.33199 -74.42771 17184 ft 418 kts 164°
2026-04-25 14:22 4.30545 -74.41567 17597 ft 422 kts 146°
2026-04-25 14:22 4.28360 -74.39592 18019 ft 426 kts 128°
2026-04-25 14:23 4.26859 -74.37020 18553 ft 432 kts 111°
2026-04-25 14:23 4.26192 -74.34095 18943 ft 434 kts 92°
2026-04-25 14:23 4.26463 -74.31087 19300 ft 435 kts 75°
2026-04-25 14:23 4.27618 -74.28298 19658 ft 436 kts 57°
2026-04-25 14:24 4.29439 -74.25873 20044 ft 436 kts 50°
2026-04-25 14:24 4.31373 -74.23525 20433 ft 438 kts 49°
2026-04-25 14:24 4.33305 -74.21160 20832 ft 440 kts 50°
2026-04-25 14:24 4.35236 -74.18779 21204 ft 441 kts 50°
2026-04-25 14:25 4.37168 -74.16376 21571 ft 443 kts 51°
2026-04-25 14:25 4.39096 -74.13959 21947 ft 445 kts 51°
2026-04-25 14:25 4.41022 -74.11521 22299 ft 448 kts 51°
2026-04-25 14:25 4.41674 -74.10693 22438 ft 448 kts 51°
2026-04-25 14:26 4.44896 -74.06598 23013 ft 452 kts 51°
2026-04-25 14:26 4.46847 -74.04115 23315 ft 454 kts 51°
2026-04-25 14:26 4.48804 -74.01620 23665 ft 456 kts 51°
2026-04-25 14:26 4.50775 -73.99123 23968 ft 458 kts 51°
2026-04-25 14:27 4.52762 -73.96628 24226 ft 458 kts 51°
2026-04-25 14:27 4.54747 -73.94126 24319 ft 459 kts 51°
2026-04-25 14:27 4.56735 -73.91624 24336 ft 459 kts 51°
2026-04-25 14:27 4.58735 -73.89100 24484 ft 463 kts 51°
2026-04-25 14:28 4.60730 -73.86570 24802 ft 463 kts 52°
2026-04-25 14:28 4.62731 -73.84042 25103 ft 463 kts 52°
2026-04-25 14:28 4.64737 -73.81511 25372 ft 465 kts 52°
2026-04-25 14:28 4.66758 -73.78957 25600 ft 467 kts 52°
2026-04-25 14:29 4.68777 -73.76401 25876 ft 468 kts 52°
2026-04-25 14:29 4.70780 -73.73870 26135 ft 470 kts 52°
2026-04-25 14:29 4.72812 -73.71300 26380 ft 471 kts 52°
2026-04-25 14:29 4.74853 -73.68717 26614 ft 473 kts 52°
2026-04-25 14:30 4.76902 -73.66125 26816 ft 475 kts 52°
2026-04-25 14:30 4.81014 -73.60921 27324 ft 477 kts 52°
2026-04-25 14:30 4.83073 -73.58314 27657 ft 476 kts 52°
2026-04-25 14:31 4.85121 -73.55724 27960 ft 475 kts 52°
2026-04-25 14:31 4.87177 -73.53122 28243 ft 475 kts 52°
2026-04-25 14:31 4.89224 -73.50526 28511 ft 474 kts 53°
2026-04-25 14:31 4.91261 -73.47944 28817 ft 473 kts 52°
2026-04-25 14:32 4.93305 -73.45354 29099 ft 473 kts 53°
2026-04-25 14:32 4.95345 -73.42769 29389 ft 472 kts 53°
2026-04-25 14:32 4.97386 -73.40184 29695 ft 472 kts 53°
2026-04-25 14:32 4.99418 -73.37615 29984 ft 471 kts 53°
2026-04-25 14:33 5.01452 -73.35041 30227 ft 470 kts 53°
2026-04-25 14:33 5.02795 -73.33339 30371 ft 470 kts 53°
2026-04-25 14:33 5.04823 -73.30768 30595 ft 469 kts 53°
2026-04-25 14:33 5.06844 -73.28210 30860 ft 467 kts 53°
2026-04-25 14:34 5.08859 -73.25655 31101 ft 466 kts 54°
2026-04-25 14:34 5.10866 -73.23103 31336 ft 466 kts 53°
2026-04-25 14:34 5.12872 -73.20553 31529 ft 465 kts 54°
2026-04-25 14:34 5.14876 -73.18004 31734 ft 465 kts 54°
2026-04-25 14:35 5.16880 -73.15458 31931 ft 465 kts 54°
2026-04-25 14:35 5.18880 -73.12909 32127 ft 464 kts 54°
2026-04-25 14:35 5.20880 -73.10362 32308 ft 464 kts 54°
2026-04-25 14:35 5.22884 -73.07831 32463 ft 464 kts 53°
2026-04-25 14:36 5.24890 -73.05300 32677 ft 463 kts 54°
2026-04-25 14:36 5.26889 -73.02754 32856 ft 463 kts 54°
2026-04-25 14:36 5.28880 -73.00220 33037 ft 463 kts 54°
2026-04-25 14:36 5.30877 -72.97690 33187 ft 463 kts 54°
2026-04-25 14:37 5.34850 -72.92616 33187 ft 462 kts 54°
2026-04-25 14:37 5.38802 -72.87583 33180 ft 462 kts 54°
2026-04-25 14:38 5.42822 -72.82495 33175 ft 462 kts 54°
2026-04-25 14:38 5.46785 -72.77468 33144 ft 462 kts 54°
2026-04-25 14:39 5.50779 -72.72380 33145 ft 461 kts 54°
2026-04-25 14:39 5.54746 -72.67365 33171 ft 461 kts 54°
2026-04-25 14:40 5.58740 -72.62315 33151 ft 461 kts 54°
2026-04-25 14:40 5.62725 -72.57266 33154 ft 462 kts 54°
2026-04-25 14:41 5.66712 -72.52204 33129 ft 462 kts 54°
2026-04-25 14:41 5.70689 -72.47141 33123 ft 462 kts 54°
2026-04-25 14:42 5.73998 -72.42929 33125 ft 462 kts 54°
2026-04-25 14:42 5.78658 -72.37003 33093 ft 462 kts 54°
2026-04-25 14:43 5.82644 -72.31931 33107 ft 463 kts 54°
2026-04-25 14:43 5.86620 -72.26862 33107 ft 462 kts 54°
2026-04-25 14:44 5.90585 -72.21789 33079 ft 462 kts 54°
2026-04-25 14:44 5.94566 -72.16720 33099 ft 462 kts 54°
2026-04-25 14:45 5.97945 -72.11316 33047 ft 455 kts 72°
2026-04-25 14:45 5.98738 -72.08291 33052 ft 451 kts 84°
2026-04-25 14:45 5.99056 -72.05162 33055 ft 450 kts 88°
2026-04-25 14:46 5.99330 -71.98885 33060 ft 450 kts 90°
2026-04-25 14:46 5.99533 -71.92609 33034 ft 450 kts 90°
2026-04-25 14:47 5.99693 -71.87382 33023 ft 452 kts 90°
2026-04-25 14:47 5.99901 -71.80007 33010 ft 452 kts 90°
2026-04-25 14:48 6.00081 -71.73697 33013 ft 452 kts 90°
2026-04-25 14:48 6.00620 -71.67413 32993 ft 455 kts 77°
2026-04-25 14:49 6.01783 -71.64453 33003 ft 459 kts 63°
2026-04-25 14:49 6.03654 -71.61853 33005 ft 463 kts 48°
2026-04-25 14:49 6.08544 -71.57579 33006 ft 466 kts 42°
2026-04-25 14:50 6.13490 -71.53373 32999 ft 465 kts 43°
2026-04-25 14:50 6.18427 -71.49130 33001 ft 467 kts 42°
2026-04-25 14:51 6.23360 -71.44890 33002 ft 467 kts 42°
2026-04-25 14:51 6.28309 -71.40655 33004 ft 467 kts 42°
2026-04-25 14:52 6.33250 -71.36413 33003 ft 467 kts 42°
2026-04-25 14:52 6.37359 -71.32889 32999 ft 467 kts 42°
2026-04-25 14:53 6.43114 -71.27967 33006 ft 467 kts 41°
2026-04-25 14:53 6.48054 -71.23727 33006 ft 467 kts 42°
2026-04-25 14:54 6.52976 -71.19480 33006 ft 467 kts 42°
2026-04-25 14:54 6.57950 -71.15253 33006 ft 467 kts 41°
2026-04-25 14:55 6.62901 -71.11017 33008 ft 467 kts 42°
2026-04-25 14:55 6.67843 -71.06769 33006 ft 467 kts 42°
2026-04-25 14:56 6.72787 -71.02517 33006 ft 467 kts 41°
2026-04-25 14:56 6.77727 -70.98266 33005 ft 467 kts 42°
2026-04-25 14:57 6.82666 -70.94015 33006 ft 467 kts 42°
2026-04-25 14:57 6.87617 -70.89756 33009 ft 467 kts 42°
2026-04-25 14:58 6.92550 -70.85511 33007 ft 466 kts 42°
2026-04-25 14:58 6.97445 -70.81291 33008 ft 466 kts 42°
2026-04-25 14:59 7.02370 -70.77048 33009 ft 466 kts 42°
2026-04-25 14:59 7.07244 -70.72745 32993 ft 465 kts 46°
2026-04-25 15:00 7.11743 -70.68074 32995 ft 465 kts 47°
2026-04-25 15:00 7.16233 -70.63392 33001 ft 465 kts 47°
2026-04-25 15:01 7.20734 -70.58696 33001 ft 467 kts 47°
2026-04-25 15:01 7.25241 -70.53984 33001 ft 467 kts 47°
2026-04-25 15:02 7.29735 -70.49259 33007 ft 467 kts 47°
2026-04-25 15:02 7.34247 -70.44546 33009 ft 467 kts 47°
2026-04-25 15:03 7.38769 -70.39852 33008 ft 467 kts 47°
2026-04-25 15:03 7.43291 -70.35139 33008 ft 467 kts 47°
2026-04-25 15:04 7.47787 -70.30420 33009 ft 467 kts 47°
2026-04-25 15:04 7.52308 -70.25712 33009 ft 467 kts 47°
2026-04-25 15:05 7.56821 -70.20992 33009 ft 468 kts 47°
2026-04-25 15:06 7.63575 -70.13901 33009 ft 468 kts 47°
2026-04-25 15:06 7.68054 -70.09200 33009 ft 468 kts 47°
2026-04-25 15:07 7.72570 -70.04467 33009 ft 468 kts 47°
2026-04-25 15:07 7.77107 -69.99763 33009 ft 468 kts 47°
2026-04-25 15:08 7.81617 -69.95042 33008 ft 468 kts 47°
2026-04-25 15:08 7.86141 -69.90305 33009 ft 469 kts 47°
2026-04-25 15:09 7.90666 -69.85565 33002 ft 470 kts 47°
2026-04-25 15:09 7.97473 -69.78426 33005 ft 471 kts 47°
2026-04-25 15:10 8.02013 -69.73664 33005 ft 471 kts 47°
2026-04-25 15:11 8.08813 -69.66517 33004 ft 471 kts 47°
2026-04-25 15:11 8.13357 -69.61753 33007 ft 471 kts 47°
2026-04-25 15:12 8.20161 -69.54610 33009 ft 468 kts 47°
2026-04-25 15:12 8.23146 -69.51472 33000 ft 470 kts 47°
2026-04-25 15:13 8.31438 -69.42694 33007 ft 471 kts 47°
2026-04-25 15:14 8.36005 -69.37885 33003 ft 471 kts 47°
2026-04-25 15:14 8.40541 -69.33114 33004 ft 471 kts 47°
2026-04-25 15:15 8.45052 -69.28366 33000 ft 471 kts 47°
2026-04-25 15:15 8.49598 -69.23602 32999 ft 471 kts 47°
2026-04-25 15:16 8.54127 -69.18804 32999 ft 472 kts 47°
2026-04-25 15:16 8.60986 -69.11625 32998 ft 473 kts 47°
2026-04-25 15:17 8.67811 -69.04404 32996 ft 473 kts 47°
2026-04-25 15:18 8.72384 -68.99620 33001 ft 473 kts 47°
2026-04-25 15:18 8.79217 -68.92413 32999 ft 473 kts 47°
2026-04-25 15:19 8.82260 -68.89197 32997 ft 473 kts 47°
2026-04-25 15:19 8.87571 -68.83592 32994 ft 475 kts 47°
2026-04-25 15:20 8.92139 -68.78762 32996 ft 475 kts 47°
2026-04-25 15:20 8.96706 -68.73936 32994 ft 475 kts 47°
2026-04-25 15:21 9.01284 -68.69097 32990 ft 475 kts 47°
2026-04-25 15:21 9.05823 -68.64296 32991 ft 475 kts 47°
2026-04-25 15:22 9.10386 -68.59469 32989 ft 475 kts 47°
2026-04-25 15:22 9.14933 -68.54616 32989 ft 475 kts 47°
2026-04-25 15:23 9.19490 -68.49762 32994 ft 476 kts 47°
2026-04-25 15:23 9.24065 -68.44903 32992 ft 476 kts 47°
2026-04-25 15:24 9.28672 -68.40077 32990 ft 476 kts 47°
2026-04-25 15:24 9.32468 -68.36038 32995 ft 476 kts 47°
2026-04-25 15:25 9.37826 -68.30360 32991 ft 477 kts 47°
2026-04-25 15:25 9.42415 -68.25516 32994 ft 476 kts 47°
2026-04-25 15:26 9.46977 -68.20645 32997 ft 476 kts 47°
2026-04-25 15:26 9.51553 -68.15783 32993 ft 478 kts 47°
2026-04-25 15:27 9.56126 -68.10891 33002 ft 478 kts 47°
2026-04-25 15:28 9.63006 -68.03573 33001 ft 478 kts 47°
2026-04-25 15:28 9.67568 -67.98731 32997 ft 478 kts 47°
2026-04-25 15:29 9.72154 -67.93855 33008 ft 478 kts 47°
2026-04-25 15:29 9.76768 -67.88988 33010 ft 478 kts 47°
2026-04-25 15:30 9.81355 -67.84107 33014 ft 479 kts 47°
2026-04-25 15:30 9.85962 -67.79199 33021 ft 481 kts 47°
2026-04-25 15:31 9.90571 -67.74288 33025 ft 480 kts 47°
2026-04-25 15:31 9.95174 -67.69374 33021 ft 480 kts 47°
2026-04-25 15:32 9.99776 -67.64466 33021 ft 480 kts 47°
2026-04-25 15:32 10.04383 -67.59554 33012 ft 480 kts 47°
2026-04-25 15:33 10.11285 -67.52177 33010 ft 481 kts 47°
2026-04-25 15:33 10.15897 -67.47248 33011 ft 481 kts 47°
2026-04-25 15:34 10.20478 -67.42350 33002 ft 481 kts 47°
2026-04-25 15:34 10.24341 -67.38217 33010 ft 481 kts 47°
2026-04-25 15:35 10.32004 -67.30021 33010 ft 481 kts 47°
2026-04-25 15:36 10.38913 -67.22622 33022 ft 481 kts 47°
2026-04-25 15:36 10.43508 -67.17700 33021 ft 478 kts 47°
2026-04-25 15:37 10.48102 -67.12771 33008 ft 482 kts 47°
2026-04-25 15:37 10.52720 -67.07823 33003 ft 483 kts 47°
2026-04-25 15:38 10.57335 -67.02870 32971 ft 482 kts 47°
2026-04-25 15:38 10.61761 -66.97770 32965 ft 481 kts 56°
2026-04-25 15:39 10.65523 -66.92146 32964 ft 481 kts 57°
2026-04-25 15:39 10.69254 -66.86503 32971 ft 478 kts 57°
2026-04-25 15:40 10.71737 -66.82763 32969 ft 476 kts 57°
2026-04-25 15:40 10.76676 -66.75328 32973 ft 479 kts 57°
2026-04-25 15:41 10.80410 -66.69692 32977 ft 481 kts 57°
2026-04-25 15:41 10.84128 -66.64083 32960 ft 481 kts 57°
2026-04-25 15:42 10.87874 -66.58444 32958 ft 481 kts 57°
2026-04-25 15:42 10.91616 -66.52798 32959 ft 481 kts 57°
2026-04-25 15:43 10.95353 -66.47161 32955 ft 481 kts 57°
2026-04-25 15:43 10.99093 -66.41512 32956 ft 481 kts 57°
2026-04-25 15:44 11.02821 -66.35865 32955 ft 480 kts 57°
2026-04-25 15:44 11.06630 -66.30259 32954 ft 483 kts 56°
2026-04-25 15:45 11.10470 -66.24640 32964 ft 484 kts 56°
2026-04-25 15:45 11.13010 -66.20903 32962 ft 485 kts 56°
2026-04-25 15:46 11.18144 -66.13342 32959 ft 485 kts 56°
2026-04-25 15:46 11.21957 -66.07722 32960 ft 485 kts 56°
2026-04-25 15:47 11.25794 -66.02068 32961 ft 485 kts 56°
2026-04-25 15:47 11.29629 -65.96411 32965 ft 485 kts 56°
2026-04-25 15:48 11.33458 -65.90758 32964 ft 485 kts 56°
2026-04-25 15:48 11.37272 -65.85079 32964 ft 487 kts 56°
2026-04-25 15:49 11.41104 -65.79381 32965 ft 487 kts 56°
2026-04-25 15:49 11.44962 -65.73694 32964 ft 487 kts 56°
2026-04-25 15:50 11.48831 -65.68032 32965 ft 487 kts 56°
2026-04-25 15:50 11.52680 -65.62335 32963 ft 487 kts 56°
2026-04-25 15:51 11.55222 -65.58521 32962 ft 484 kts 56°
2026-04-25 15:51 11.60281 -65.51003 32964 ft 483 kts 56°
2026-04-25 15:52 11.64060 -65.45401 32965 ft 483 kts 56°
2026-04-25 15:52 11.67860 -65.39750 32965 ft 485 kts 56°
2026-04-25 15:53 11.71753 -65.34132 32966 ft 485 kts 54°
2026-04-25 15:53 11.75674 -65.28525 32965 ft 485 kts 56°
2026-04-25 15:54 11.79565 -65.22904 32964 ft 484 kts 56°
2026-04-25 15:54 11.83450 -65.17280 32965 ft 484 kts 56°
2026-04-25 15:55 11.87334 -65.11655 32966 ft 485 kts 56°
2026-04-25 15:55 11.91215 -65.06028 32961 ft 484 kts 56°
2026-04-25 15:56 11.95091 -65.00400 32961 ft 485 kts 55°
2026-04-25 15:56 11.98981 -64.94756 32961 ft 487 kts 56°
2026-04-25 15:57 12.02887 -64.89083 32965 ft 487 kts 56°
2026-04-25 15:57 12.06755 -64.83454 32965 ft 487 kts 57°
2026-04-25 15:58 12.10651 -64.77777 32966 ft 487 kts 56°
2026-04-25 15:58 12.14555 -64.72104 32966 ft 487 kts 56°
2026-04-25 15:59 12.18443 -64.66432 32965 ft 488 kts 56°
2026-04-25 15:59 12.22345 -64.60752 32966 ft 487 kts 56°
2026-04-25 16:00 12.24956 -64.56958 32966 ft 488 kts 56°
2026-04-25 16:00 12.30154 -64.49379 32970 ft 489 kts 56°
2026-04-25 16:01 12.34063 -64.43680 32965 ft 489 kts 56°
2026-04-25 16:01 12.37926 -64.38014 32970 ft 489 kts 56°
2026-04-25 16:02 12.41786 -64.32274 32971 ft 490 kts 57°
2026-04-25 16:02 12.45661 -64.26519 32971 ft 491 kts 57°
2026-04-25 16:03 12.49533 -64.20767 32969 ft 491 kts 57°
2026-04-25 16:03 12.53419 -64.15022 32970 ft 491 kts 56°
2026-04-25 16:04 12.57293 -64.09272 32971 ft 491 kts 56°
2026-04-25 16:04 12.61146 -64.03514 32970 ft 490 kts 57°
2026-04-25 16:05 12.64989 -63.97739 32972 ft 490 kts 56°
2026-04-25 16:06 12.70152 -63.90093 32971 ft 490 kts 56°
2026-04-25 16:06 12.74009 -63.84332 32972 ft 490 kts 56°
2026-04-25 16:07 12.77870 -63.78570 32970 ft 490 kts 56°
2026-04-25 16:07 12.81732 -63.72817 32979 ft 487 kts 56°
2026-04-25 16:08 12.85521 -63.67132 32975 ft 483 kts 56°
2026-04-25 16:08 12.89629 -63.61682 32982 ft 483 kts 51°
2026-04-25 16:09 12.93926 -63.56378 32971 ft 483 kts 51°
2026-04-25 16:09 12.98209 -63.51062 32973 ft 483 kts 51°
2026-04-25 16:10 13.02464 -63.45781 32973 ft 483 kts 51°
2026-04-25 16:10 13.06741 -63.40467 32977 ft 483 kts 51°
2026-04-25 16:11 13.11021 -63.35140 32974 ft 483 kts 51°
2026-04-25 16:11 13.15301 -63.29813 32977 ft 483 kts 51°
2026-04-25 16:12 13.19568 -63.24485 32973 ft 483 kts 51°
2026-04-25 16:12 13.23840 -63.19146 32977 ft 483 kts 51°
2026-04-25 16:13 13.28103 -63.13812 32977 ft 483 kts 51°
2026-04-25 16:13 13.32370 -63.08474 32977 ft 484 kts 51°
2026-04-25 16:14 13.36647 -63.03121 32980 ft 485 kts 51°
2026-04-25 16:14 13.40923 -62.97741 32974 ft 487 kts 51°
2026-04-25 16:15 13.45229 -62.92359 32974 ft 487 kts 51°
2026-04-25 16:15 13.49531 -62.86970 32979 ft 487 kts 51°
2026-04-25 16:16 13.53791 -62.81625 32972 ft 487 kts 51°
2026-04-25 16:16 13.58086 -62.76227 32974 ft 488 kts 51°
2026-04-25 16:17 13.62383 -62.70828 32976 ft 488 kts 51°
2026-04-25 16:17 13.66681 -62.65422 32976 ft 489 kts 52°
2026-04-25 16:18 13.70997 -62.59990 32979 ft 490 kts 51°
2026-04-25 16:18 13.75304 -62.54567 32979 ft 490 kts 51°
2026-04-25 16:19 13.79615 -62.49131 32974 ft 490 kts 51°
2026-04-25 16:19 13.83917 -62.43703 32978 ft 490 kts 51°
2026-04-25 16:20 13.90384 -62.35549 32977 ft 490 kts 51°
2026-04-25 16:21 13.96821 -62.27417 32983 ft 491 kts 51°
2026-04-25 16:21 14.01137 -62.21956 32984 ft 492 kts 51°
2026-04-25 16:22 14.05454 -62.16476 32987 ft 493 kts 51°
2026-04-25 16:22 14.09778 -62.10998 32987 ft 493 kts 51°
2026-04-25 16:23 14.14101 -62.05509 32979 ft 493 kts 52°
2026-04-25 16:23 14.18430 -62.00029 32980 ft 493 kts 51°
2026-04-25 16:24 14.22750 -61.94533 32984 ft 493 kts 51°
2026-04-25 16:24 14.27088 -61.89030 32981 ft 496 kts 51°
2026-04-25 16:25 14.31451 -61.83527 32980 ft 496 kts 52°
2026-04-25 16:25 14.35806 -61.78009 32983 ft 496 kts 52°
2026-04-25 16:26 14.40130 -61.72510 32977 ft 496 kts 52°
2026-04-25 16:26 14.44501 -61.66953 32979 ft 496 kts 52°
2026-04-25 16:27 14.48851 -61.61417 32980 ft 496 kts 52°
2026-04-25 16:27 14.53171 -61.55907 32976 ft 497 kts 52°
2026-04-25 16:28 14.57514 -61.50363 32982 ft 497 kts 52°
2026-04-25 16:28 14.61862 -61.44818 32986 ft 497 kts 52°
2026-04-25 16:29 14.66203 -61.39273 32982 ft 497 kts 52°
2026-04-25 16:29 14.70550 -61.33720 32981 ft 497 kts 52°
2026-04-25 16:30 14.74898 -61.28158 32992 ft 498 kts 52°
2026-04-25 16:30 14.79255 -61.22582 32986 ft 499 kts 52°
2026-04-25 16:31 14.83607 -61.16981 32975 ft 499 kts 52°
2026-04-25 16:31 14.87944 -61.11383 32994 ft 499 kts 51°
2026-04-25 16:32 14.92289 -61.05790 32987 ft 499 kts 52°
2026-04-25 16:32 14.96600 -61.00212 32992 ft 499 kts 52°
2026-04-25 16:33 15.00990 -60.94589 33002 ft 499 kts 51°
2026-04-25 16:33 15.05334 -60.89027 32996 ft 500 kts 51°
2026-04-25 16:34 15.09703 -60.83434 32999 ft 500 kts 51°
2026-04-25 16:34 15.14059 -60.77836 32993 ft 500 kts 51°
2026-04-25 16:35 15.18447 -60.72226 32986 ft 501 kts 51°
2026-04-25 16:35 15.22816 -60.66612 32998 ft 501 kts 52°
2026-04-25 16:36 15.27176 -60.60986 32992 ft 501 kts 51°
2026-04-25 16:36 15.31540 -60.55353 32994 ft 501 kts 51°
2026-04-25 16:37 15.35900 -60.49711 32988 ft 501 kts 51°
2026-04-25 16:37 15.40258 -60.44082 32985 ft 502 kts 52°
2026-04-25 16:38 15.44623 -60.38435 33000 ft 502 kts 52°
2026-04-25 16:38 15.48994 -60.32774 32996 ft 502 kts 52°
2026-04-25 16:39 15.53358 -60.27118 32997 ft 502 kts 51°
2026-04-25 16:39 15.57712 -60.21466 32994 ft 502 kts 51°
2026-04-25 16:40 15.62045 -60.15844 32994 ft 502 kts 51°
2026-04-25 16:40 15.66404 -60.10175 32998 ft 502 kts 51°
2026-04-25 16:41 15.70726 -60.04483 32999 ft 502 kts 52°
2026-04-25 16:41 15.77296 -59.96000 32996 ft 502 kts 51°
2026-04-25 16:42 15.81653 -59.90347 32991 ft 502 kts 51°
2026-04-25 16:42 15.85963 -59.84713 32998 ft 501 kts 51°
2026-04-25 16:43 15.90278 -59.79028 32991 ft 501 kts 52°
2026-04-25 16:43 15.94608 -59.73355 32989 ft 501 kts 52°
2026-04-25 16:44 15.98939 -59.67683 32992 ft 501 kts 51°
2026-04-25 16:44 16.03262 -59.62004 32994 ft 501 kts 51°
2026-04-25 16:45 16.07639 -59.56360 32996 ft 501 kts 51°
2026-04-25 16:45 16.11993 -59.50693 32996 ft 501 kts 51°
2026-04-25 16:46 16.16341 -59.45014 32998 ft 501 kts 51°
2026-04-25 16:46 16.19218 -59.41244 32998 ft 502 kts 51°
2026-04-25 16:47 16.25015 -59.33630 32994 ft 502 kts 51°
2026-04-25 16:47 16.29314 -59.27972 33012 ft 501 kts 51°
2026-04-25 16:48 16.33656 -59.22270 32998 ft 503 kts 51°
2026-04-25 16:48 16.37999 -59.16562 32995 ft 503 kts 51°
2026-04-25 16:49 16.42337 -59.10852 32997 ft 503 kts 51°
2026-04-25 16:49 16.46673 -59.05134 33000 ft 503 kts 51°
2026-04-25 16:50 16.51006 -58.99425 33000 ft 500 kts 52°
2026-04-25 16:50 16.55318 -58.93725 33009 ft 502 kts 51°
2026-04-25 16:51 16.59661 -58.87997 33006 ft 503 kts 51°
2026-04-25 16:51 16.62561 -58.84166 33004 ft 504 kts 51°
2026-04-25 16:52 16.68338 -58.76526 33001 ft 504 kts 52°
2026-04-25 16:52 16.72645 -58.70821 33000 ft 504 kts 51°
2026-04-25 16:53 16.79151 -58.62200 33011 ft 504 kts 51°
2026-04-25 16:54 16.83512 -58.56416 33008 ft 512 kts 51°
2026-04-25 16:54 16.87172 -58.51550 33008 ft 513 kts 51°
2026-04-25 16:55 16.91572 -58.45693 32997 ft 512 kts 52°
2026-04-25 16:55 16.95968 -58.39841 33005 ft 512 kts 51°
2026-04-25 16:56 17.00354 -58.33999 33007 ft 512 kts 52°
2026-04-25 16:56 17.04750 -58.28142 33017 ft 513 kts 51°
2026-04-25 16:57 17.09174 -58.22262 33014 ft 514 kts 51°
2026-04-25 16:57 17.13585 -58.16381 33009 ft 513 kts 51°
2026-04-25 16:58 17.17984 -58.10505 33012 ft 513 kts 51°
2026-04-25 16:58 17.22385 -58.04624 33013 ft 513 kts 51°
2026-04-25 16:59 17.26785 -57.98741 33050 ft 514 kts 51°
2026-04-25 16:59 17.28986 -57.95795 33228 ft 515 kts 51°
2026-04-25 16:59 17.31193 -57.92835 33413 ft 515 kts 51°
2026-04-25 16:59 17.33398 -57.89881 33619 ft 515 kts 51°
2026-04-25 17:00 17.35603 -57.86924 33817 ft 515 kts 51°
2026-04-25 17:00 17.37811 -57.83962 33996 ft 515 kts 51°
2026-04-25 17:00 17.39982 -57.81041 34155 ft 515 kts 51°
2026-04-25 17:00 17.42186 -57.78086 34312 ft 515 kts 51°
2026-04-25 17:01 17.44395 -57.75129 34469 ft 515 kts 51°
2026-04-25 17:01 17.46592 -57.72169 34633 ft 514 kts 51°
2026-04-25 17:01 17.48792 -57.69214 34789 ft 514 kts 51°
2026-04-25 17:01 17.50989 -57.66265 34948 ft 514 kts 51°
2026-04-25 17:02 17.53187 -57.63310 35042 ft 515 kts 51°
2026-04-25 17:02 17.57585 -57.57390 35039 ft 515 kts 51°
2026-04-25 17:03 17.61976 -57.51466 35029 ft 515 kts 51°
2026-04-25 17:03 17.66369 -57.45547 35020 ft 514 kts 51°
2026-04-25 17:04 17.70752 -57.39608 35016 ft 515 kts 51°
2026-04-25 17:04 17.75135 -57.33698 35018 ft 513 kts 51°
2026-04-25 17:05 17.79531 -57.27772 35015 ft 515 kts 51°
2026-04-25 17:05 17.86105 -57.18839 35009 ft 515 kts 51°
2026-04-25 17:06 17.90468 -57.12938 35011 ft 515 kts 51°
2026-04-25 17:06 17.94850 -57.07004 35015 ft 512 kts 51°
2026-04-25 17:07 17.99187 -57.01065 35017 ft 515 kts 54°
2026-04-25 17:07 18.02574 -56.94422 35026 ft 516 kts 65°
2026-04-25 17:08 18.05620 -56.87587 35019 ft 516 kts 65°
2026-04-25 17:08 18.08710 -56.80772 35023 ft 514 kts 65°
2026-04-25 17:09 18.11795 -56.74005 35020 ft 513 kts 65°
2026-04-25 17:09 18.14876 -56.67238 35027 ft 513 kts 65°
2026-04-25 17:10 18.17955 -56.60453 35021 ft 513 kts 65°
2026-04-25 17:10 18.20999 -56.53713 35015 ft 512 kts 65°
2026-04-25 17:11 18.24061 -56.46943 35022 ft 512 kts 65°
2026-04-25 17:11 18.27111 -56.40174 35024 ft 512 kts 65°
2026-04-25 17:12 18.30157 -56.33400 35015 ft 512 kts 65°
2026-04-25 17:12 18.33216 -56.26628 35021 ft 511 kts 65°
2026-04-25 17:13 18.35765 -56.20972 35014 ft 511 kts 65°
2026-04-25 17:13 18.39299 -56.13099 35024 ft 513 kts 65°
2026-04-25 17:14 18.42343 -56.06302 35012 ft 513 kts 65°
2026-04-25 17:14 18.45388 -55.99496 35022 ft 513 kts 65°
2026-04-25 17:15 18.48443 -55.92695 35028 ft 514 kts 65°
2026-04-25 17:15 18.51488 -55.85891 35030 ft 514 kts 65°
2026-04-25 17:16 18.54530 -55.79084 35037 ft 513 kts 65°
2026-04-25 17:16 18.57563 -55.72286 35034 ft 512 kts 65°
2026-04-25 17:17 18.60603 -55.65450 35022 ft 516 kts 65°
2026-04-25 17:17 18.63634 -55.58640 35024 ft 516 kts 65°
2026-04-25 17:18 18.66677 -55.51789 35018 ft 516 kts 65°
2026-04-25 17:18 18.69711 -55.44956 35022 ft 513 kts 65°
2026-04-25 17:19 18.72737 -55.38141 35025 ft 513 kts 65°
2026-04-25 17:19 18.75755 -55.31317 35023 ft 513 kts 65°
2026-04-25 17:20 18.78783 -55.24464 35027 ft 516 kts 65°
2026-04-25 17:20 18.81782 -55.17588 35026 ft 516 kts 65°
2026-04-25 17:21 18.84810 -55.10715 35025 ft 516 kts 65°
2026-04-25 17:21 18.87843 -55.03854 35027 ft 516 kts 65°
2026-04-25 17:22 18.90388 -54.98159 35026 ft 515 kts 65°
2026-04-25 17:22 18.93891 -54.90198 35027 ft 514 kts 65°
2026-04-25 17:23 18.96898 -54.83338 35034 ft 517 kts 65°
2026-04-25 17:23 18.99937 -54.76427 35033 ft 519 kts 65°
2026-04-25 17:24 19.02969 -54.69525 35030 ft 516 kts 65°
2026-04-25 17:24 19.05979 -54.62649 35032 ft 516 kts 65°
2026-04-25 17:25 19.08984 -54.55754 35034 ft 516 kts 65°
2026-04-25 17:25 19.11992 -54.48862 35027 ft 516 kts 65°
2026-04-25 17:26 19.14998 -54.41981 35037 ft 516 kts 65°
2026-04-25 17:26 19.18013 -54.35053 35033 ft 519 kts 65°
2026-04-25 17:27 19.21027 -54.28124 35033 ft 519 kts 65°
2026-04-25 17:27 19.23031 -54.23530 35028 ft 518 kts 65°
2026-04-25 17:28 19.27034 -54.14286 35033 ft 516 kts 65°
2026-04-25 17:28 19.30033 -54.07378 35036 ft 516 kts 65°
2026-04-25 17:29 19.33033 -54.00459 35044 ft 518 kts 65°
2026-04-25 17:29 19.36028 -53.93517 35036 ft 519 kts 65°
2026-04-25 17:30 19.39016 -53.86608 35034 ft 519 kts 65°
2026-04-25 17:30 19.42014 -53.79652 35039 ft 519 kts 65°
2026-04-25 17:31 19.45015 -53.72694 35035 ft 518 kts 65°
2026-04-25 17:31 19.47998 -53.65759 35035 ft 517 kts 65°
2026-04-25 17:32 19.50986 -53.58813 35049 ft 519 kts 65°
2026-04-25 17:32 19.53982 -53.51831 35040 ft 521 kts 65°
2026-04-25 17:33 19.56985 -53.44825 35040 ft 522 kts 65°
2026-04-25 17:33 19.59980 -53.37821 35042 ft 522 kts 65°
2026-04-25 17:34 19.62967 -53.30807 35038 ft 522 kts 65°
2026-04-25 17:34 19.65965 -53.23805 35038 ft 521 kts 65°
2026-04-25 17:35 19.68950 -53.16810 35047 ft 522 kts 65°
2026-04-25 17:35 19.71939 -53.09776 35044 ft 523 kts 65°
2026-04-25 17:36 19.74925 -53.02733 35042 ft 523 kts 65°
2026-04-25 17:36 19.77921 -52.95700 35040 ft 522 kts 65°
2026-04-25 17:37 19.80906 -52.88675 35041 ft 522 kts 65°
2026-04-25 17:37 19.83861 -52.81692 35043 ft 522 kts 65°
2026-04-25 17:38 19.85854 -52.76984 35052 ft 523 kts 65°
2026-04-25 17:38 19.89829 -52.67589 35045 ft 523 kts 65°
2026-04-25 17:39 19.92801 -52.60530 35042 ft 523 kts 65°
2026-04-25 17:39 19.95785 -52.53461 35042 ft 523 kts 65°
2026-04-25 17:40 19.98754 -52.46416 35044 ft 521 kts 65°
2026-04-25 17:40 20.01707 -52.39371 35045 ft 521 kts 65°
2026-04-25 17:41 20.04163 -52.33527 35044 ft 521 kts 65°
2026-04-25 17:41 20.07122 -52.26478 35036 ft 521 kts 65°
2026-04-25 17:42 20.10067 -52.19455 35042 ft 520 kts 65°
2026-04-25 17:42 20.13004 -52.12423 35044 ft 520 kts 65°
2026-04-25 17:43 20.15917 -52.05440 35044 ft 520 kts 65°
2026-04-25 17:43 20.18856 -51.98412 35050 ft 520 kts 65°
2026-04-25 17:44 20.21798 -51.91356 35043 ft 522 kts 65°
2026-04-25 17:44 20.24720 -51.84279 35043 ft 522 kts 65°
2026-04-25 17:45 20.27163 -51.78406 35043 ft 522 kts 65°
2026-04-25 17:45 20.30595 -51.70146 35044 ft 522 kts 65°
2026-04-25 17:46 20.33524 -51.63070 35044 ft 522 kts 65°
2026-04-25 17:46 20.36462 -51.55992 35051 ft 523 kts 65°
2026-04-25 17:47 20.39390 -51.48903 35047 ft 523 kts 65°
2026-04-25 17:47 20.42298 -51.41843 35048 ft 523 kts 65°
2026-04-25 17:48 20.46690 -51.31186 35044 ft 522 kts 65°
2026-04-25 17:49 20.49612 -51.24099 35043 ft 522 kts 65°
2026-04-25 17:49 20.52533 -51.17001 35056 ft 524 kts 65°
2026-04-25 17:50 20.55435 -51.09867 35048 ft 524 kts 65°
2026-04-25 17:50 20.58362 -51.02736 35047 ft 525 kts 65°
2026-04-25 17:51 20.61269 -50.95592 35048 ft 524 kts 65°
2026-04-25 17:51 20.64202 -50.88461 35051 ft 525 kts 65°
2026-04-25 17:52 20.67099 -50.81374 35055 ft 524 kts 65°
2026-04-25 17:52 20.70017 -50.74222 35050 ft 526 kts 65°
2026-04-25 17:53 20.72908 -50.67036 35052 ft 526 kts 66°
2026-04-25 17:53 20.75770 -50.59845 35047 ft 525 kts 64°
2026-04-25 17:54 20.78728 -50.52717 35055 ft 525 kts 65°
2026-04-25 17:54 20.81644 -50.45569 35053 ft 525 kts 65°
2026-04-25 17:55 20.84543 -50.38395 35057 ft 526 kts 65°
2026-04-25 17:55 20.87439 -50.31216 35056 ft 526 kts 65°
2026-04-25 17:56 20.90337 -50.24031 35053 ft 526 kts 65°
2026-04-25 17:56 20.93230 -50.16862 35054 ft 525 kts 65°
2026-04-25 17:57 20.96093 -50.09721 35053 ft 525 kts 65°
2026-04-25 17:57 20.98955 -50.02538 35058 ft 526 kts 65°
2026-04-25 17:58 21.01120 -49.95044 35051 ft 528 kts 75°
2026-04-25 17:58 21.02915 -49.87430 35052 ft 528 kts 75°
2026-04-25 17:59 21.04673 -49.79799 35055 ft 528 kts 75°
2026-04-25 17:59 21.06442 -49.72177 35051 ft 528 kts 75°
2026-04-25 18:00 21.08204 -49.64547 35054 ft 527 kts 75°
2026-04-25 18:00 21.09965 -49.56929 35062 ft 528 kts 75°
2026-04-25 18:01 21.11726 -49.49273 35055 ft 529 kts 75°
2026-04-25 18:01 21.13474 -49.41632 35053 ft 528 kts 75°
2026-04-25 18:02 21.15241 -49.33988 35053 ft 528 kts 75°
2026-04-25 18:02 21.16983 -49.26381 35052 ft 528 kts 75°
2026-04-25 18:03 21.18714 -49.18737 35050 ft 528 kts 75°
2026-04-25 18:03 21.20457 -49.11099 35052 ft 528 kts 75°
2026-04-25 18:04 21.22183 -49.03431 35055 ft 529 kts 75°
2026-04-25 18:04 21.23933 -48.95765 35053 ft 529 kts 75°
2026-04-25 18:05 21.25662 -48.88098 35056 ft 529 kts 75°
2026-04-25 18:05 21.27394 -48.80435 35055 ft 529 kts 75°
2026-04-25 18:06 21.29101 -48.72763 35055 ft 529 kts 75°
2026-04-25 18:06 21.30828 -48.65097 35050 ft 529 kts 75°
2026-04-25 18:07 21.32543 -48.57418 35061 ft 530 kts 75°
2026-04-25 18:07 21.34280 -48.49737 35060 ft 530 kts 75°
2026-04-25 18:08 21.35985 -48.42045 35055 ft 530 kts 75°
2026-04-25 18:08 21.37697 -48.34366 35064 ft 529 kts 75°
2026-04-25 18:09 21.39400 -48.26739 35063 ft 530 kts 75°
2026-04-25 18:09 21.41070 -48.19037 35057 ft 529 kts 76°
2026-04-25 18:10 21.42731 -48.11336 35059 ft 529 kts 75°
2026-04-25 18:10 21.44428 -48.03645 35056 ft 529 kts 76°
2026-04-25 18:11 21.46106 -47.95956 35060 ft 529 kts 75°
2026-04-25 18:11 21.47806 -47.88320 35062 ft 529 kts 75°
2026-04-25 18:12 21.49532 -47.80643 35062 ft 529 kts 75°
2026-04-25 18:12 21.51218 -47.72959 35061 ft 528 kts 75°
2026-04-25 18:13 21.52897 -47.65278 35064 ft 529 kts 75°
2026-04-25 18:13 21.54567 -47.57585 35055 ft 529 kts 75°
2026-04-25 18:14 21.57041 -47.46027 35063 ft 529 kts 76°
2026-04-25 18:14 21.58698 -47.38329 35059 ft 529 kts 75°
2026-04-25 18:15 21.60359 -47.30622 35061 ft 529 kts 75°
2026-04-25 18:15 21.62042 -47.22925 35063 ft 529 kts 75°
2026-04-25 18:16 21.63709 -47.15219 35063 ft 529 kts 75°
2026-04-25 18:17 21.66178 -47.03663 35061 ft 529 kts 75°
2026-04-25 18:17 21.67812 -46.96006 35062 ft 529 kts 75°
2026-04-25 18:18 21.69458 -46.88292 35065 ft 529 kts 75°
2026-04-25 18:18 21.71093 -46.80586 35065 ft 529 kts 75°
2026-04-25 18:19 21.72728 -46.72873 35070 ft 529 kts 75°
2026-04-25 18:19 21.74362 -46.65149 35066 ft 529 kts 76°
2026-04-25 18:20 21.75987 -46.57417 35065 ft 529 kts 76°
2026-04-25 18:20 21.77596 -46.49692 35067 ft 529 kts 76°
2026-04-25 18:21 21.79210 -46.41967 35067 ft 529 kts 75°
2026-04-25 18:21 21.80843 -46.34236 35064 ft 529 kts 76°
2026-04-25 18:22 21.82440 -46.26560 35075 ft 530 kts 75°
2026-04-25 18:22 21.84066 -46.18812 35071 ft 530 kts 76°
2026-04-25 18:23 21.85671 -46.11058 35069 ft 530 kts 76°
2026-04-25 18:23 21.87282 -46.03315 35071 ft 530 kts 76°
2026-04-25 18:24 21.88878 -45.95574 35066 ft 530 kts 76°
2026-04-25 18:24 21.90469 -45.87836 35086 ft 529 kts 76°
2026-04-25 18:25 21.92068 -45.80073 35075 ft 532 kts 76°
2026-04-25 18:25 21.93668 -45.72296 35071 ft 530 kts 76°
2026-04-25 18:26 21.95249 -45.64541 35072 ft 530 kts 76°
2026-04-25 18:26 21.96827 -45.56830 35068 ft 530 kts 76°
2026-04-25 18:27 21.98407 -45.49088 35074 ft 529 kts 76°
2026-04-25 18:27 21.99981 -45.41326 35079 ft 530 kts 76°
2026-04-25 18:28 22.01549 -45.33559 35074 ft 531 kts 76°
2026-04-25 18:28 22.03123 -45.25793 35076 ft 531 kts 76°
2026-04-25 18:29 22.05471 -45.14135 35072 ft 530 kts 76°
2026-04-25 18:30 22.08581 -44.98592 35084 ft 530 kts 75°
2026-04-25 18:30 22.10127 -44.90870 35080 ft 530 kts 75°
2026-04-25 18:31 22.11671 -44.83097 35078 ft 530 kts 76°
2026-04-25 18:31 22.13219 -44.75324 35082 ft 530 kts 76°
2026-04-25 18:32 22.14763 -44.67545 35076 ft 530 kts 76°
2026-04-25 18:32 22.16296 -44.59771 35084 ft 529 kts 76°
2026-04-25 18:33 22.17568 -44.53316 35079 ft 529 kts 76°
2026-04-25 18:33 22.19104 -44.45504 35079 ft 529 kts 76°
2026-04-25 18:34 22.20627 -44.37741 35082 ft 528 kts 76°
2026-04-25 18:34 22.22131 -44.30033 35080 ft 528 kts 76°
2026-04-25 18:35 22.23646 -44.22272 35089 ft 528 kts 75°
2026-04-25 18:35 22.25157 -44.14521 35080 ft 528 kts 76°
2026-04-25 18:36 22.26666 -44.06756 35088 ft 528 kts 76°
2026-04-25 18:36 22.28167 -43.98999 35089 ft 528 kts 76°
2026-04-25 18:37 22.29671 -43.91228 35084 ft 528 kts 76°
2026-04-25 18:37 22.31169 -43.83462 35086 ft 528 kts 76°
2026-04-25 18:38 22.32646 -43.75742 35086 ft 529 kts 76°
2026-04-25 18:38 22.34135 -43.67967 35087 ft 529 kts 76°
2026-04-25 18:39 22.35623 -43.60183 35086 ft 529 kts 76°
2026-04-25 18:39 22.37110 -43.52395 35088 ft 530 kts 76°
2026-04-25 18:40 22.38567 -43.44589 35090 ft 530 kts 76°
2026-04-25 18:40 22.40033 -43.36783 35089 ft 530 kts 76°
2026-04-25 18:41 22.41489 -43.29019 35084 ft 530 kts 76°
2026-04-25 18:41 22.42954 -43.21236 35083 ft 528 kts 76°
2026-04-25 18:42 22.44169 -43.14770 35089 ft 528 kts 76°
2026-04-25 18:42 22.45869 -43.05681 35091 ft 528 kts 76°
2026-04-25 18:43 22.47325 -42.97894 35090 ft 529 kts 76°
2026-04-25 18:43 22.48806 -42.90113 35091 ft 529 kts 75°
2026-04-25 18:44 22.50271 -42.82314 35088 ft 529 kts 76°
2026-04-25 18:44 22.51697 -42.74514 35090 ft 529 kts 76°
2026-04-25 18:45 22.53138 -42.66706 35096 ft 529 kts 76°
2026-04-25 18:45 22.54592 -42.58909 35102 ft 529 kts 76°
2026-04-25 18:46 22.56022 -42.51138 35094 ft 530 kts 76°
2026-04-25 18:46 22.57446 -42.43317 35092 ft 530 kts 76°
2026-04-25 18:47 22.58886 -42.35493 35097 ft 530 kts 76°
2026-04-25 18:47 22.60321 -42.27657 35096 ft 531 kts 76°
2026-04-25 18:48 22.61737 -42.19827 35096 ft 531 kts 76°
2026-04-25 18:48 22.63156 -42.11989 35097 ft 531 kts 76°
2026-04-25 18:49 22.64576 -42.04151 35099 ft 531 kts 76°
2026-04-25 18:49 22.65984 -41.96306 35101 ft 531 kts 76°
2026-04-25 18:50 22.67393 -41.88459 35098 ft 531 kts 76°
2026-04-25 18:50 22.68802 -41.80614 35099 ft 531 kts 76°
2026-04-25 18:51 22.69963 -41.74088 35106 ft 531 kts 76°
2026-04-25 18:51 22.71599 -41.64900 35101 ft 531 kts 76°
2026-04-25 18:52 22.72992 -41.57051 35087 ft 531 kts 76°
2026-04-25 18:52 22.74387 -41.49200 35098 ft 530 kts 76°
2026-04-25 18:53 22.75767 -41.41351 35097 ft 530 kts 76°
2026-04-25 18:53 22.77135 -41.33566 35101 ft 530 kts 76°
2026-04-25 18:54 22.79196 -41.21794 35103 ft 530 kts 76°
2026-04-25 18:55 22.80571 -41.13936 35102 ft 530 kts 76°
2026-04-25 18:55 22.81937 -41.06076 35102 ft 530 kts 76°
2026-04-25 18:56 22.83289 -40.98222 35102 ft 530 kts 76°
2026-04-25 18:56 22.84650 -40.90410 35106 ft 530 kts 76°
2026-04-25 18:57 22.86020 -40.82495 35103 ft 531 kts 76°
2026-04-25 18:57 22.87363 -40.74675 35101 ft 531 kts 76°
2026-04-25 18:58 22.88708 -40.66807 35110 ft 531 kts 76°
2026-04-25 18:58 22.90720 -40.54967 35107 ft 532 kts 76°
2026-04-25 18:59 22.93388 -40.39183 35108 ft 532 kts 76°
2026-04-25 19:00 22.95401 -40.27321 35110 ft 533 kts 76°
2026-04-25 19:01 22.97406 -40.15460 35107 ft 533 kts 76°
2026-04-25 19:01 22.98741 -40.07550 35111 ft 533 kts 76°
2026-04-25 19:02 22.99398 -39.99512 35105 ft 540 kts 93°
2026-04-25 19:02 22.98771 -39.95494 35114 ft 541 kts 105°
2026-04-25 19:03 22.96210 -39.86440 35110 ft 539 kts 108°
2026-04-25 19:03 22.93266 -39.76089 35112 ft 540 kts 107°
2026-04-25 19:04 22.89965 -39.64387 35113 ft 541 kts 107°
2026-04-25 19:05 22.85526 -39.48801 35108 ft 540 kts 107°
2026-04-25 19:06 22.83315 -39.41038 35111 ft 539 kts 107°
2026-04-25 19:06 22.79998 -39.29386 35113 ft 540 kts 107°
2026-04-25 19:07 22.76682 -39.17775 35110 ft 540 kts 107°
2026-04-25 19:08 22.73338 -39.06112 35103 ft 540 kts 107°
2026-04-25 19:09 22.69639 -38.93141 35111 ft 539 kts 107°
2026-04-25 19:10 22.65539 -38.78948 35112 ft 539 kts 107°
2026-04-25 19:10 22.63289 -38.71202 35112 ft 539 kts 107°
2026-04-25 19:11 22.61037 -38.63464 35109 ft 540 kts 108°
2026-04-25 19:11 22.58778 -38.55736 35112 ft 538 kts 108°
2026-04-25 19:12 22.56536 -38.48012 35112 ft 538 kts 108°
2026-04-25 19:12 22.54286 -38.40297 35117 ft 538 kts 108°
2026-04-25 19:13 22.52045 -38.32620 35114 ft 539 kts 108°
2026-04-25 19:13 22.49782 -38.24896 35115 ft 539 kts 108°
2026-04-25 19:14 22.47512 -38.17169 35117 ft 539 kts 108°
2026-04-25 19:14 22.45235 -38.09431 35113 ft 540 kts 108°
2026-04-25 19:15 22.42943 -38.01698 35114 ft 540 kts 108°
2026-04-25 19:15 22.40676 -37.93952 34651 ft 543 kts 107°
2026-04-25 19:15 22.39488 -37.90014 33382 ft 547 kts 109°
2026-04-25 19:16 22.38252 -37.86204 34088 ft 531 kts 108°
2026-04-25 19:16 22.37167 -37.82427 34660 ft 523 kts 106°
2026-04-25 19:16 22.36118 -37.78658 34962 ft 522 kts 107°
2026-04-25 19:16 22.35040 -37.74915 35067 ft 525 kts 107°
2026-04-25 19:17 22.33944 -37.71193 35127 ft 529 kts 108°
2026-04-25 19:17 22.31654 -37.63552 35136 ft 539 kts 108°
2026-04-25 19:18 22.29361 -37.55817 35121 ft 540 kts 107°
2026-04-25 19:18 22.27069 -37.48084 35115 ft 541 kts 108°
2026-04-25 19:19 22.24758 -37.40362 35116 ft 541 kts 108°
2026-04-25 19:19 22.22442 -37.32623 35116 ft 542 kts 108°
2026-04-25 19:20 22.20100 -37.24907 35108 ft 539 kts 108°
2026-04-25 19:20 22.17786 -37.17205 35113 ft 540 kts 108°
2026-04-25 19:21 22.15474 -37.09493 35115 ft 541 kts 108°
2026-04-25 19:21 22.11985 -36.97933 35124 ft 541 kts 108°
2026-04-25 19:22 22.09638 -36.90200 35116 ft 542 kts 108°
2026-04-25 19:23 22.06158 -36.78660 35110 ft 539 kts 108°
2026-04-25 19:23 22.02631 -36.67134 35117 ft 541 kts 108°
2026-04-25 19:24 22.00687 -36.60736 35116 ft 541 kts 108°
2026-04-25 19:25 21.95978 -36.45320 35117 ft 541 kts 108°
2026-04-25 19:25 21.93619 -36.37628 35117 ft 541 kts 108°
2026-04-25 19:26 21.91261 -36.29959 35113 ft 539 kts 108°
2026-04-25 19:26 21.88905 -36.22300 35115 ft 539 kts 109°
2026-04-25 19:27 21.86912 -36.15941 35112 ft 539 kts 108°
2026-04-25 19:27 21.84156 -36.06986 35114 ft 539 kts 108°
2026-04-25 19:28 21.81797 -35.99315 35119 ft 539 kts 108°
2026-04-25 19:28 21.79403 -35.91653 35115 ft 541 kts 108°
2026-04-25 19:29 21.77038 -35.84044 35110 ft 538 kts 108°
2026-04-25 19:29 21.74692 -35.76398 35115 ft 538 kts 108°
2026-04-25 19:30 21.72306 -35.68764 35118 ft 539 kts 109°
2026-04-25 19:30 21.69908 -35.61122 35110 ft 539 kts 108°
2026-04-25 19:31 21.67513 -35.53477 35114 ft 539 kts 108°
2026-04-25 19:31 21.65109 -35.45839 35120 ft 540 kts 108°
2026-04-25 19:32 21.62687 -35.38199 35098 ft 539 kts 109°
2026-04-25 19:32 21.60660 -35.31883 35102 ft 538 kts 109°
2026-04-25 19:33 21.57861 -35.22982 35118 ft 538 kts 108°
2026-04-25 19:33 21.55465 -35.15349 35112 ft 539 kts 108°
2026-04-25 19:34 21.53060 -35.07719 35108 ft 539 kts 109°
2026-04-25 19:34 21.50665 -35.00083 35109 ft 539 kts 108°
2026-04-25 19:35 21.48283 -34.92485 35115 ft 541 kts 108°
2026-04-25 19:35 21.45837 -34.84877 35112 ft 538 kts 109°
2026-04-25 19:36 21.43394 -34.77285 35113 ft 538 kts 109°
2026-04-25 19:36 21.40972 -34.69681 35115 ft 539 kts 108°
2026-04-25 19:37 21.38554 -34.62057 35115 ft 540 kts 109°
2026-04-25 19:37 21.36118 -34.54436 35116 ft 540 kts 109°
2026-04-25 19:38 21.33701 -34.46817 35119 ft 540 kts 108°
2026-04-25 19:38 21.31279 -34.39189 35098 ft 539 kts 109°
2026-04-25 19:39 21.28833 -34.31595 35105 ft 538 kts 109°
2026-04-25 19:39 21.26399 -34.24058 35106 ft 538 kts 109°
2026-04-25 19:40 21.23940 -34.16469 35115 ft 540 kts 109°
2026-04-25 19:40 21.21500 -34.08863 35108 ft 540 kts 109°
2026-04-25 19:41 21.19041 -34.01262 35104 ft 540 kts 109°
2026-04-25 19:41 21.17385 -33.96176 35103 ft 540 kts 109°
2026-04-25 19:42 21.14093 -33.86101 35105 ft 537 kts 109°
2026-04-25 19:42 21.11629 -33.78540 35107 ft 537 kts 109°
2026-04-25 19:43 21.09177 -33.70981 35104 ft 537 kts 109°
2026-04-25 19:43 21.06710 -33.63422 35105 ft 538 kts 109°
2026-04-25 19:44 21.04235 -33.55857 35107 ft 539 kts 109°
2026-04-25 19:44 21.01746 -33.48289 35104 ft 539 kts 109°
2026-04-25 19:45 20.99256 -33.40729 35109 ft 539 kts 109°
2026-04-25 19:45 20.96782 -33.33145 35104 ft 539 kts 109°
2026-04-25 19:46 20.94289 -33.25585 35091 ft 539 kts 109°
2026-04-25 19:46 20.91789 -33.18014 35099 ft 539 kts 109°
2026-04-25 19:47 20.89280 -33.10441 35097 ft 541 kts 109°
2026-04-25 19:47 20.86770 -33.02850 35097 ft 541 kts 109°
2026-04-25 19:48 20.84260 -32.95311 35096 ft 541 kts 109°
2026-04-25 19:48 20.81744 -32.87747 35098 ft 539 kts 109°
2026-04-25 19:49 20.80078 -32.82690 35099 ft 539 kts 109°
2026-04-25 19:49 20.76716 -32.72650 35097 ft 539 kts 109°
2026-04-25 19:50 20.72945 -32.61324 35101 ft 539 kts 109°
2026-04-25 19:51 20.70403 -32.53765 35101 ft 541 kts 109°
2026-04-25 19:51 20.67872 -32.46184 35090 ft 541 kts 109°
2026-04-25 19:52 20.65340 -32.38621 35081 ft 540 kts 110°
2026-04-25 19:52 20.62828 -32.31154 35094 ft 539 kts 109°
2026-04-25 19:53 20.60293 -32.23620 35090 ft 539 kts 110°
2026-04-25 19:53 20.57744 -32.16090 35094 ft 539 kts 110°
2026-04-25 19:54 20.55195 -32.08564 35092 ft 539 kts 110°
2026-04-25 19:54 20.52647 -32.01031 35095 ft 541 kts 110°
2026-04-25 19:55 20.50081 -31.93485 35088 ft 541 kts 110°
2026-04-25 19:55 20.47522 -31.85950 35076 ft 538 kts 110°
2026-04-25 19:56 20.44989 -31.78461 35092 ft 537 kts 110°
2026-04-25 19:56 20.42310 -31.71021 35088 ft 538 kts 115°
2026-04-25 19:57 20.39142 -31.63790 35084 ft 538 kts 116°
2026-04-25 19:57 20.35976 -31.56577 35087 ft 538 kts 116°
2026-04-25 19:58 20.32808 -31.49359 35086 ft 538 kts 116°
2026-04-25 19:58 20.29636 -31.42179 35082 ft 539 kts 116°
2026-04-25 19:59 20.26466 -31.34976 35082 ft 535 kts 116°
2026-04-25 19:59 20.23300 -31.27798 35082 ft 536 kts 116°
2026-04-25 20:00 20.20139 -31.20614 35084 ft 536 kts 116°
2026-04-25 20:00 20.16942 -31.13441 35087 ft 536 kts 116°
2026-04-25 20:01 20.12182 -31.02685 35083 ft 536 kts 116°
2026-04-25 20:01 20.09024 -30.95514 35072 ft 535 kts 116°
2026-04-25 20:02 20.05839 -30.88346 35080 ft 534 kts 116°
2026-04-25 20:02 20.02675 -30.81196 35083 ft 535 kts 116°
2026-04-25 20:03 19.99477 -30.74056 35084 ft 535 kts 116°
2026-04-25 20:03 19.96285 -30.66905 35088 ft 535 kts 116°
2026-04-25 20:04 19.93086 -30.59765 35078 ft 535 kts 116°
2026-04-25 20:04 19.89890 -30.52616 35077 ft 535 kts 116°
2026-04-25 20:05 19.86709 -30.45488 35071 ft 533 kts 116°
2026-04-25 20:05 19.83541 -30.38440 35080 ft 533 kts 116°
2026-04-25 20:06 19.80344 -30.31319 35079 ft 534 kts 116°
2026-04-25 20:06 19.77143 -30.24207 35079 ft 534 kts 116°
2026-04-25 20:07 19.73933 -30.17098 35075 ft 534 kts 116°
2026-04-25 20:07 19.70733 -30.09978 35078 ft 534 kts 116°
2026-04-25 20:08 19.67511 -30.02870 35058 ft 533 kts 116°
2026-04-25 20:08 19.64307 -29.95781 35065 ft 532 kts 116°
2026-04-25 20:09 19.61115 -29.88695 35073 ft 532 kts 116°
2026-04-25 20:09 19.57912 -29.81671 35076 ft 533 kts 116°
2026-04-25 20:10 19.54713 -29.74575 35072 ft 533 kts 116°
2026-04-25 20:10 19.51486 -29.67490 35066 ft 533 kts 116°
2026-04-25 20:11 19.48255 -29.60416 35067 ft 533 kts 116°
2026-04-25 20:11 19.45029 -29.53346 35068 ft 530 kts 116°
2026-04-25 20:12 19.42359 -29.47491 35067 ft 532 kts 116°
2026-04-25 20:12 19.39664 -29.41568 35071 ft 532 kts 116°
2026-04-25 20:13 19.35917 -29.33378 35067 ft 532 kts 116°
2026-04-25 20:13 19.32691 -29.26311 35063 ft 532 kts 116°
2026-04-25 20:14 19.29465 -29.19250 35069 ft 533 kts 116°
2026-04-25 20:14 19.26221 -29.12188 35062 ft 534 kts 117°
2026-04-25 20:15 19.22982 -29.05155 35056 ft 530 kts 117°
2026-04-25 20:15 19.19752 -28.98144 35083 ft 530 kts 116°
2026-04-25 20:16 19.16553 -28.91179 35074 ft 531 kts 116°
2026-04-25 20:16 19.13306 -28.84143 35057 ft 532 kts 117°
2026-04-25 20:17 19.10023 -28.77130 35056 ft 532 kts 117°
2026-04-25 20:17 19.06765 -28.70113 35058 ft 532 kts 116°
2026-04-25 20:18 19.03522 -28.63077 35059 ft 532 kts 117°
2026-04-25 20:18 19.00262 -28.56054 35058 ft 533 kts 117°
2026-04-25 20:19 18.97012 -28.49014 35052 ft 533 kts 116°
2026-04-25 20:19 18.93771 -28.41976 35053 ft 533 kts 117°
2026-04-25 20:20 18.90514 -28.34949 35051 ft 533 kts 117°
2026-04-25 20:20 18.87246 -28.27922 35050 ft 532 kts 117°
2026-04-25 20:21 18.83992 -28.20951 35048 ft 533 kts 117°
2026-04-25 20:21 18.80714 -28.13939 35046 ft 530 kts 117°
2026-04-25 20:22 18.78009 -28.08141 35053 ft 529 kts 117°
2026-04-25 20:22 18.74190 -27.99994 35050 ft 530 kts 117°
2026-04-25 20:23 18.70925 -27.93028 35048 ft 530 kts 117°
2026-04-25 20:23 18.67665 -27.86054 35047 ft 530 kts 117°
2026-04-25 20:24 18.64400 -27.79085 35044 ft 530 kts 117°
2026-04-25 20:24 18.61125 -27.72114 35045 ft 530 kts 117°
2026-04-25 20:25 18.57857 -27.65146 35039 ft 528 kts 117°
2026-04-25 20:25 18.54596 -27.58271 35044 ft 528 kts 117°
2026-04-25 20:26 18.51336 -27.51330 35045 ft 528 kts 117°
2026-04-25 20:26 18.48062 -27.44402 35042 ft 528 kts 117°
2026-04-25 20:27 18.44771 -27.37477 35042 ft 529 kts 117°
2026-04-25 20:27 18.41465 -27.30559 35041 ft 529 kts 117°
2026-04-25 20:28 18.38184 -27.23621 35042 ft 529 kts 117°
2026-04-25 20:28 18.34923 -27.16749 35034 ft 526 kts 117°
2026-04-25 20:29 18.31635 -27.09854 35036 ft 526 kts 117°
2026-04-25 20:29 18.28368 -27.02967 35036 ft 526 kts 117°
2026-04-25 20:30 18.25089 -26.96067 35032 ft 527 kts 117°
2026-04-25 20:30 18.21798 -26.89184 35033 ft 527 kts 117°
2026-04-25 20:31 18.18512 -26.82295 35034 ft 527 kts 117°
2026-04-25 20:31 18.15221 -26.75415 35031 ft 527 kts 117°
2026-04-25 20:32 18.11932 -26.68535 35026 ft 524 kts 117°
2026-04-25 20:32 18.08685 -26.61733 35026 ft 524 kts 117°
2026-04-25 20:33 18.05411 -26.54889 35030 ft 524 kts 117°
2026-04-25 20:33 18.02663 -26.49171 35029 ft 523 kts 117°
2026-04-25 20:34 17.98846 -26.41235 35024 ft 523 kts 117°
2026-04-25 20:34 17.95559 -26.34399 35024 ft 524 kts 117°
2026-04-25 20:35 17.92314 -26.27648 35021 ft 515 kts 117°
2026-04-25 20:35 17.89080 -26.20926 35015 ft 515 kts 117°
2026-04-25 20:36 17.85857 -26.14237 35022 ft 512 kts 117°
2026-04-25 20:36 17.82630 -26.07561 35020 ft 513 kts 118°
2026-04-25 20:37 17.79372 -26.00904 35018 ft 512 kts 120°
2026-04-25 20:37 17.75985 -25.94382 35023 ft 512 kts 120°
2026-04-25 20:38 17.72563 -25.87814 35020 ft 513 kts 120°
2026-04-25 20:38 17.69132 -25.81248 35018 ft 514 kts 120°
2026-04-25 20:39 17.65707 -25.74669 35018 ft 514 kts 120°
2026-04-25 20:39 17.62894 -25.69235 35011 ft 509 kts 119°
2026-04-25 20:40 17.58935 -25.61600 35014 ft 509 kts 120°
2026-04-25 20:40 17.55534 -25.55102 35021 ft 508 kts 120°
2026-04-25 20:41 17.52122 -25.48610 35014 ft 508 kts 120°
2026-04-25 20:41 17.48690 -25.42098 35013 ft 515 kts 120°
2026-04-25 20:42 17.45232 -25.35459 35013 ft 521 kts 120°
2026-04-25 20:42 17.41770 -25.28834 35008 ft 521 kts 120°
2026-04-25 20:43 17.38280 -25.22197 35004 ft 518 kts 120°
2026-04-25 20:43 17.34808 -25.15597 35013 ft 517 kts 120°
2026-04-25 20:44 17.31336 -25.09009 35017 ft 517 kts 120°
2026-04-25 20:44 17.27857 -25.02420 35012 ft 517 kts 120°
2026-04-25 20:45 17.24376 -24.95836 35021 ft 517 kts 120°
2026-04-25 20:45 17.20899 -24.89247 35020 ft 517 kts 120°
2026-04-25 20:46 17.17400 -24.82692 35000 ft 517 kts 120°
2026-04-25 20:46 17.13910 -24.76126 34997 ft 516 kts 120°
2026-04-25 20:47 17.10430 -24.69565 35002 ft 515 kts 120°
2026-04-25 20:47 17.06952 -24.63022 35001 ft 515 kts 120°
2026-04-25 20:48 17.03493 -24.56502 35002 ft 515 kts 120°
2026-04-25 20:48 17.00010 -24.49960 34977 ft 515 kts 120°
2026-04-25 20:49 16.96531 -24.43414 34974 ft 515 kts 120°
2026-04-25 20:49 16.93053 -24.36867 34984 ft 515 kts 120°
2026-04-25 20:50 16.89564 -24.30334 34974 ft 515 kts 120°
2026-04-25 20:50 16.86078 -24.23795 34987 ft 515 kts 120°
2026-04-25 20:51 16.82597 -24.17267 34986 ft 515 kts 120°
2026-04-25 20:51 16.79107 -24.10746 34984 ft 515 kts 120°
2026-04-25 20:52 16.76199 -24.05326 34988 ft 515 kts 121°
2026-04-25 20:52 16.72126 -23.97700 34990 ft 515 kts 121°
2026-04-25 20:53 16.68631 -23.91185 34997 ft 515 kts 121°
2026-04-25 20:53 16.65135 -23.84670 34985 ft 515 kts 121°
2026-04-25 20:54 16.61652 -23.78154 34984 ft 515 kts 120°
2026-04-25 20:54 16.58219 -23.71590 34980 ft 515 kts 120°
2026-04-25 20:55 16.54778 -23.65047 34972 ft 514 kts 120°
2026-04-25 20:55 16.51347 -23.58559 34976 ft 514 kts 120°
2026-04-25 20:56 16.47894 -23.52031 34969 ft 514 kts 121°
2026-04-25 20:56 16.44418 -23.45507 34964 ft 519 kts 121°
2026-04-25 20:57 16.40919 -23.38907 34961 ft 520 kts 121°
2026-04-25 20:57 16.37426 -23.32300 34950 ft 520 kts 121°
2026-04-25 20:58 16.33928 -23.25731 34961 ft 518 kts 121°
2026-04-25 20:58 16.30483 -23.19149 34965 ft 518 kts 121°
2026-04-25 20:59 16.27008 -23.12575 34962 ft 518 kts 120°
2026-04-25 20:59 16.23493 -23.06027 34965 ft 518 kts 121°
2026-04-25 21:00 16.21157 -23.01698 34968 ft 518 kts 121°
2026-04-25 21:01 16.15319 -22.90742 34951 ft 518 kts 121°
2026-04-25 21:01 16.11856 -22.84166 34948 ft 518 kts 121°
2026-04-25 21:02 16.08377 -22.77616 34950 ft 515 kts 121°
2026-04-25 21:02 16.04915 -22.71148 34968 ft 515 kts 121°
2026-04-25 21:03 16.01433 -22.64643 34970 ft 515 kts 121°
2026-04-25 21:03 15.97930 -22.58150 34965 ft 515 kts 121°
2026-04-25 21:04 15.94457 -22.51639 34970 ft 515 kts 121°
2026-04-25 21:04 15.90970 -22.45128 34969 ft 515 kts 121°
2026-04-25 21:05 15.87466 -22.38634 34968 ft 515 kts 121°
2026-04-25 21:05 15.83964 -22.32133 34962 ft 515 kts 121°
2026-04-25 21:06 15.80471 -22.25662 34958 ft 512 kts 121°
2026-04-25 21:06 15.76978 -22.19216 34965 ft 512 kts 121°
2026-04-25 21:07 15.73511 -22.12747 34965 ft 512 kts 121°
2026-04-25 21:07 15.70026 -22.06290 34962 ft 512 kts 121°
2026-04-25 21:08 15.66541 -21.99841 34962 ft 512 kts 121°
2026-04-25 21:08 15.63063 -21.93435 34959 ft 512 kts 122°
2026-04-25 21:09 15.57756 -21.83812 34962 ft 512 kts 121°
2026-04-25 21:09 15.54276 -21.77363 34955 ft 512 kts 120°
2026-04-25 21:10 15.50862 -21.70882 34958 ft 512 kts 121°
2026-04-25 21:10 15.47349 -21.64452 34951 ft 512 kts 121°
2026-04-25 21:11 15.43858 -21.58019 34953 ft 512 kts 122°
2026-04-25 21:11 15.40362 -21.51580 34951 ft 512 kts 121°
2026-04-25 21:12 15.36902 -21.45178 34954 ft 512 kts 121°
2026-04-25 21:12 15.33959 -21.39800 34953 ft 513 kts 122°
2026-04-25 21:13 15.29803 -21.32370 34953 ft 513 kts 122°
2026-04-25 21:13 15.26293 -21.25959 34943 ft 511 kts 121°
2026-04-25 21:14 15.22841 -21.19520 34952 ft 511 kts 121°
2026-04-25 21:14 15.19344 -21.13113 34948 ft 511 kts 121°
2026-04-25 21:15 15.15863 -21.06697 34945 ft 511 kts 121°
2026-04-25 21:15 15.12354 -21.00291 34944 ft 511 kts 121°
2026-04-25 21:16 15.08847 -20.93892 34944 ft 511 kts 122°
2026-04-25 21:16 15.05291 -20.87530 34946 ft 511 kts 122°
2026-04-25 21:17 15.01750 -20.81160 34945 ft 511 kts 121°
2026-04-25 21:17 14.98244 -20.74762 34940 ft 509 kts 121°
2026-04-25 21:18 14.94746 -20.68391 34940 ft 509 kts 121°
2026-04-25 21:18 14.91244 -20.62025 34939 ft 509 kts 121°
2026-04-25 21:19 14.87751 -20.55708 34938 ft 509 kts 121°
2026-04-25 21:19 14.84239 -20.49347 34937 ft 509 kts 121°
2026-04-25 21:20 14.81304 -20.44018 34933 ft 509 kts 121°
2026-04-25 21:20 14.77233 -20.36618 34935 ft 509 kts 121°
2026-04-25 21:21 14.73726 -20.30266 34934 ft 509 kts 122°
2026-04-25 21:21 14.70198 -20.23927 34924 ft 507 kts 121°
2026-04-25 21:22 14.67425 -20.17251 34934 ft 509 kts 108°
2026-04-25 21:22 14.65296 -20.10277 34936 ft 509 kts 108°
2026-04-25 21:23 14.63071 -20.03338 34929 ft 509 kts 109°
2026-04-25 21:23 14.60858 -19.96390 34927 ft 509 kts 109°
2026-04-25 21:24 14.58607 -19.89454 34923 ft 509 kts 109°
2026-04-25 21:24 14.56377 -19.82518 34920 ft 509 kts 109°
2026-04-25 21:25 14.54172 -19.75574 34926 ft 509 kts 109°
2026-04-25 21:25 14.51939 -19.68633 34925 ft 509 kts 110°
2026-04-25 21:26 14.49663 -19.61718 34921 ft 509 kts 109°
2026-04-25 21:26 14.47462 -19.54821 34923 ft 509 kts 109°
2026-04-25 21:27 14.45151 -19.47920 34920 ft 509 kts 110°
2026-04-25 21:27 14.42900 -19.41028 34918 ft 506 kts 109°
2026-04-25 21:28 14.40695 -19.34131 34920 ft 506 kts 108°
2026-04-25 21:28 14.38465 -19.27242 34915 ft 506 kts 109°
2026-04-25 21:29 14.36209 -19.20372 34909 ft 506 kts 109°
2026-04-25 21:29 14.33964 -19.13493 34910 ft 506 kts 109°
2026-04-25 21:30 14.31789 -19.06637 34908 ft 505 kts 109°
2026-04-25 21:30 14.29936 -19.00912 34900 ft 492 kts 109°
2026-04-25 21:31 14.27452 -18.93216 34894 ft 485 kts 109°
2026-04-25 21:31 14.25286 -18.86629 34900 ft 485 kts 109°
2026-04-25 21:32 14.23154 -18.80039 34640 ft 483 kts 109°
2026-04-25 21:32 14.22083 -18.76751 34344 ft 485 kts 109°
2026-04-25 21:32 14.20985 -18.73465 34085 ft 486 kts 109°
2026-04-25 21:33 14.19908 -18.70158 33870 ft 487 kts 109°
2026-04-25 21:33 14.18823 -18.66845 33604 ft 488 kts 109°
2026-04-25 21:33 14.17737 -18.63526 33345 ft 489 kts 109°
2026-04-25 21:33 14.16655 -18.60209 33085 ft 488 kts 108°
2026-04-25 21:34 14.15573 -18.56894 32836 ft 488 kts 108°
2026-04-25 21:34 14.14453 -18.53588 32585 ft 489 kts 109°
2026-04-25 21:34 14.13325 -18.50296 31819 ft 488 kts 108°
2026-04-25 21:34 14.12222 -18.46978 30796 ft 492 kts 108°
2026-04-25 21:35 14.11108 -18.43630 29759 ft 495 kts 107°
2026-04-25 21:35 14.10198 -18.40214 28657 ft 494 kts 96°
2026-04-25 21:35 14.10134 -18.36724 27861 ft 483 kts 81°
2026-04-25 21:35 14.10822 -18.33429 27146 ft 472 kts 69°
2026-04-25 21:36 14.11953 -18.30289 26428 ft 464 kts 66°
2026-04-25 21:36 14.13127 -18.27220 25979 ft 460 kts 66°
2026-04-25 21:36 14.14285 -18.24153 25710 ft 459 kts 67°
2026-04-25 21:36 14.15394 -18.21073 25481 ft 458 kts 68°
2026-04-25 21:37 14.16439 -18.17977 25273 ft 457 kts 69°
2026-04-25 21:37 14.16790 -18.16930 25203 ft 456 kts 69°
2026-04-25 21:37 14.18538 -18.11819 24906 ft 455 kts 68°
2026-04-25 21:37 14.19603 -18.08755 24723 ft 453 kts 68°
2026-04-25 21:38 14.20677 -18.05702 24253 ft 451 kts 69°
2026-04-25 21:38 14.21718 -18.02668 23619 ft 445 kts 69°
2026-04-25 21:38 14.22735 -17.99670 22741 ft 443 kts 69°
2026-04-25 21:38 14.23761 -17.96683 21902 ft 441 kts 69°
2026-04-25 21:39 14.24791 -17.93716 21156 ft 439 kts 69°
2026-04-25 21:39 14.25810 -17.90804 20460 ft 436 kts 69°
2026-04-25 21:39 14.26855 -17.87851 19788 ft 430 kts 69°
2026-04-25 21:39 14.27840 -17.85010 19210 ft 424 kts 69°
2026-04-25 21:40 14.28829 -17.82163 18579 ft 419 kts 69°
2026-04-25 21:40 14.29812 -17.79350 17867 ft 416 kts 69°
2026-04-25 21:40 14.30789 -17.76561 17115 ft 412 kts 69°
2026-04-25 21:40 14.31750 -17.73791 16422 ft 408 kts 69°
2026-04-25 21:41 14.32713 -17.71054 15750 ft 403 kts 69°
2026-04-25 21:41 14.33712 -17.68367 15100 ft 398 kts 68°
2026-04-25 21:41 14.34699 -17.65720 14480 ft 394 kts 69°
2026-04-25 21:41 14.35621 -17.63067 13836 ft 391 kts 70°
2026-04-25 21:42 14.36546 -17.60447 13196 ft 387 kts 71°
2026-04-25 21:42 14.37447 -17.57851 12532 ft 383 kts 71°
2026-04-25 21:42 14.38331 -17.55278 11915 ft 378 kts 71°
2026-04-25 21:42 14.39187 -17.52736 11332 ft 373 kts 72°
2026-04-25 21:43 14.40042 -17.50244 10920 ft 363 kts 71°
2026-04-25 21:43 14.40896 -17.47849 10610 ft 347 kts 71°
2026-04-25 21:43 14.41724 -17.45564 10248 ft 331 kts 71°
2026-04-25 21:43 14.42501 -17.43386 9840 ft 316 kts 72°
2026-04-25 21:44 14.43220 -17.41303 9419 ft 302 kts 73°
2026-04-25 21:44 14.43908 -17.39309 9063 ft 289 kts 72°
2026-04-25 21:44 14.45225 -17.35461 8319 ft 282 kts 71°
2026-04-25 21:45 14.45870 -17.33558 7915 ft 280 kts 70°
2026-04-25 21:45 14.46093 -17.32920 7780 ft 279 kts 70°
2026-04-25 21:45 14.47005 -17.29755 7037 ft 278 kts 86°
2026-04-25 21:45 14.46655 -17.27820 6638 ft 276 kts 115°
2026-04-25 21:46 14.45538 -17.26252 6320 ft 268 kts 134°
2026-04-25 21:46 14.44273 -17.24893 5999 ft 256 kts 131°
2026-04-25 21:46 14.43146 -17.23520 5693 ft 245 kts 127°
2026-04-25 21:46 14.42168 -17.22131 5483 ft 233 kts 121°
2026-04-25 21:47 14.41324 -17.20742 5263 ft 224 kts 117°
2026-04-25 21:47 14.40590 -17.19336 4922 ft 221 kts 112°
2026-04-25 21:47 14.39950 -17.17903 4535 ft 220 kts 109°
2026-04-25 21:47 14.39375 -17.16424 4118 ft 221 kts 105°
2026-04-25 21:48 14.38894 -17.14973 3883 ft 213 kts 103°
2026-04-25 21:48 14.38513 -17.13520 3580 ft 208 kts 99°
2026-04-25 21:48 14.38228 -17.12072 3263 ft 204 kts 95°
2026-04-25 21:48 14.38022 -17.10637 3011 ft 203 kts 91°
2026-04-25 21:49 14.37947 -17.09191 2960 ft 200 kts 79°
2026-04-25 21:49 14.38357 -17.07875 2949 ft 191 kts 45°
2026-04-25 21:49 14.39061 -17.07323 2957 ft 187 kts 19°
2026-04-25 21:49 14.40326 -17.07061 2975 ft 184 kts
2026-04-25 21:50 14.41590 -17.07128 2976 ft 187 kts 358°
2026-04-25 21:50 14.42814 -17.07150 2999 ft 164 kts 360°
2026-04-25 21:50 14.43874 -17.07159 2983 ft 141 kts
2026-04-25 21:50 14.44861 -17.07164 2965 ft 142 kts
2026-04-25 21:51 14.45867 -17.07170 2987 ft 141 kts
2026-04-25 21:51 14.46824 -17.07176 3006 ft 140 kts
2026-04-25 21:51 14.47804 -17.07181 3004 ft 141 kts
2026-04-25 21:51 14.48769 -17.07186 2999 ft 131 kts
2026-04-25 21:52 14.49654 -17.07191 2991 ft 125 kts
2026-04-25 21:52 14.50530 -17.07196 2995 ft 125 kts
2026-04-25 21:52 14.51397 -17.07200 2907 ft 125 kts
2026-04-25 21:52 14.52267 -17.07205 2770 ft 125 kts
2026-04-25 21:53 14.53136 -17.07210 2609 ft 125 kts
2026-04-25 21:53 14.54011 -17.07215 2450 ft 124 kts
2026-04-25 21:53 14.54859 -17.07219 2299 ft 123 kts
2026-04-25 21:53 14.55714 -17.07224 2151 ft 121 kts
2026-04-25 21:54 14.56556 -17.07229 1995 ft 121 kts
2026-04-25 21:54 14.57410 -17.07233 1834 ft 123 kts
2026-04-25 21:54 14.58276 -17.07238 1680 ft 124 kts
2026-04-25 21:54 14.59133 -17.07243 1524 ft 121 kts
2026-04-25 21:55 14.59969 -17.07247 1353 ft 120 kts 360°
2026-04-25 21:55 14.60797 -17.07252 1195 ft 119 kts 357°
2026-04-25 21:55 14.61634 -17.07253 1043 ft 121 kts 358°
2026-04-25 21:55 14.62470 -17.07233 919 ft 119 kts 358°
2026-04-25 21:56 14.63298 -17.07240 750 ft 119 kts 357°
2026-04-25 21:56 14.63849 -17.07245 587 ft 120 kts 358°
2026-04-25 21:56 14.64960 -17.07259 397 ft 119 kts 359°
2026-04-25 21:56 14.65773 -17.07268 273 ft 115 kts
2026-04-25 21:57 14.66440 -17.07271 269 ft 68 kts 358°
2026-04-25 21:57 14.66767 -17.07269 274 ft 23 kts 359°
2026-04-25 21:57 14.66870 -17.07275 273 ft 30 kts 357°
2026-04-25 21:57 14.67023 -17.07273 273 ft 20 kts 20°
2026-04-25 21:58 14.67076 -17.07146 273 ft 22 kts 85°
2026-04-25 21:58 14.67076 -17.07063 273 ft 2 kts 90°
2026-04-25 21:58 14.67076 -17.07031 276 ft 7 kts 90°
2026-04-25 21:58 14.67075 -17.06965 277 ft 11 kts 90°
2026-04-25 21:59 14.67075 -17.06948 277 ft 2 kts 84°
2026-04-25 21:59 14.67077 -17.06925 277 ft 5 kts 89°
2026-04-25 21:59 14.67077 -17.06917 277 ft 2 kts 89°
2026-04-25 22:00 14.67079 -17.06865 277 ft 4 kts 90°
2026-04-25 22:00 14.67079 -17.06853 277 ft 2 kts 89°